| time (UTC) | temp F | wind direction | speed MPH | gust MPH | rain 1hr in | rain 24hr in | rain mn in | humidity % | barometer mb |
| 20260903154005 | 55 | 176 | 4.0 | 10.0 | 0.06 | 0.56 | 0.29 | 90 | 1009.6 |
| 20260903153505 | 55 | 172 | 6.0 | 10.0 | 0.06 | 0.56 | 0.29 | 90 | 1009.6 |
| 20260903153005 | 55 | 184 | 5.0 | 9.0 | 0.07 | 0.56 | 0.29 | 90 | 1009.6 |
| 20260903152505 | 55 | 182 | 6.0 | 12.0 | 0.07 | 0.56 | 0.29 | 90 | 1009.6 |
| 20260903152005 | 55 | 170 | 6.0 | 10.0 | 0.07 | 0.55 | 0.28 | 90 | 1009.5 |
| 20260903150505 | 55 | 173 | 5.0 | 12.0 | 0.06 | 0.53 | 0.26 | 90 | 1009.5 |
| 20260903150005 | 55 | 156 | 5.0 | 12.0 | 0.05 | 0.52 | 0.25 | 90 | 1009.5 |
| 20260903145505 | 55 | 176 | 6.0 | 9.0 | 0.04 | 0.51 | 0.24 | 90 | 1009.3 |
| 20260903145005 | 55 | 166 | 5.0 | 9.0 | 0.04 | 0.51 | 0.24 | 90 | 1009.3 |
| 20260903144505 | 55 | 150 | 3.0 | 8.0 | 0.04 | 0.50 | 0.23 | 90 | 1009.3 |
| 20260903143505 | 55 | 160 | 5.0 | 8.0 | 0.05 | 0.50 | 0.23 | 90 | 1009.2 |
| 20260903143005 | 55 | 178 | 6.0 | 10.0 | 0.04 | 0.49 | 0.22 | 90 | 1009.1 |
| 20260903142505 | 55 | 189 | 5.0 | 8.0 | 0.05 | 0.49 | 0.22 | 90 | 1009.1 |
| 20260903142005 | 55 | 191 | 8.0 | 13.0 | 0.07 | 0.48 | 0.21 | 90 | 1009.1 |
| 20260903141505 | 55 | 175 | 8.0 | 16.0 | 0.09 | 0.48 | 0.21 | 90 | 1009.1 |
| 20260903141005 | 55 | 181 | 3.0 | 7.0 | 0.09 | 0.48 | 0.21 | 90 | 1009.1 |
| 20260903140505 | 55 | 189 | 3.0 | 7.0 | 0.08 | 0.47 | 0.20 | 90 | 1009.0 |
| 20260903140005 | 55 | 174 | 4.0 | 8.0 | 0.08 | 0.47 | 0.20 | 90 | 1009.0 |
| 20260903135505 | 55 | 185 | 4.0 | 10.0 | 0.08 | 0.47 | 0.20 | 90 | 1009.0 |
| 20260903134505 | 55 | 171 | 5.0 | 10.0 | 0.07 | 0.46 | 0.19 | 90 | 1009.0 |
| 20260903134005 | 55 | 152 | 3.0 | 10.0 | 0.06 | 0.45 | 0.18 | 90 | 1009.0 |
| 20260903133504 | 55 | 172 | 5.0 | 8.0 | 0.08 | 0.45 | 0.18 | 90 | 1008.8 |
| 20260903133005 | 55 | 168 | 5.0 | 7.0 | 0.11 | 0.45 | 0.18 | 90 | 1008.9 |
| 20260903132505 | 55 | 155 | 2.0 | 7.0 | 0.11 | 0.44 | 0.17 | 90 | 1008.9 |
| 20260903132006 | 55 | 177 | 3.0 | 9.0 | 0.08 | 0.41 | 0.14 | 90 | 1009.0 |
| 20260903131505 | 55 | 177 | 5.0 | 9.0 | 0.07 | 0.39 | 0.12 | 90 | 1008.9 |
| 20260903131005 | 55 | 188 | 6.0 | 10.0 | 0.07 | 0.39 | 0.12 | 90 | 1008.8 |
| 20260903130005 | 55 | 163 | 6.0 | 12.0 | 0.09 | 0.39 | 0.12 | 90 | 1008.7 |
| 20260903125504 | 55 | 165 | 3.0 | 7.0 | 0.09 | 0.39 | 0.12 | 90 | 1008.7 |
| 20260903125005 | 55 | 165 | 2.0 | 5.0 | 0.10 | 0.39 | 0.12 | 90 | 1008.7 |
| 20260903124505 | 55 | 137 | 3.0 | 5.0 | 0.10 | 0.39 | 0.12 | 90 | 1008.7 |
| 20260903124004 | 55 | 170 | 5.0 | 7.0 | 0.11 | 0.39 | 0.12 | 90 | 1008.8 |
| 20260903123505 | 55 | 172 | 5.0 | 8.0 | 0.09 | 0.37 | 0.10 | 90 | 1008.9 |
| 20260903123005 | 55 | 179 | 5.0 | 8.0 | 0.07 | 0.34 | 0.07 | 90 | 1009.0 |
| 20260903122505 | 56 | 160 | 6.0 | 10.0 | 0.06 | 0.33 | 0.06 | 90 | 1009.0 |
| 20260903122005 | 56 | 187 | 5.0 | 9.0 | 0.06 | 0.33 | 0.06 | 89 | 1009.0 |
| 20260903121505 | 56 | 176 | 3.0 | 8.0 | 0.05 | 0.32 | 0.05 | 89 | 1009.0 |
| 20260903121005 | 56 | 180 | 5.0 | 7.0 | 0.05 | 0.32 | 0.05 | 89 | 1008.9 |
| 20260903120504 | 56 | 162 | 3.0 | 6.0 | 0.04 | 0.31 | 0.04 | 89 | 1008.9 |
| 20260903120005 | 56 | 171 | 3.0 | 8.0 | 0.03 | 0.30 | 0.03 | 89 | 1008.9 |
| 20260903115504 | 56 | 166 | 4.0 | 8.0 | 0.03 | 0.30 | 0.03 | 89 | 1008.9 |
| 20260903114505 | 56 | 154 | 2.0 | 7.0 | 0.02 | 0.29 | 0.02 | 89 | 1008.9 |
| 20260903113504 | 56 | 174 | 5.0 | 10.0 | 0.01 | 0.28 | 0.01 | 88 | 1009.0 |
| 20260903112505 | 56 | 153 | 4.0 | 8.0 | 0.00 | 0.27 | 0.00 | 88 | 1008.9 |
| 20260903111505 | 56 | 167 | 5.0 | 10.0 | 0.00 | 0.27 | 0.00 | 88 | 1009.0 |
| 20260903111004 | 56 | 154 | 6.0 | 9.0 | 0.00 | 0.27 | 0.00 | 88 | 1008.9 |
| 20260903110504 | 56 | 170 | 5.0 | 12.0 | 0.00 | 0.27 | 0.00 | 88 | 1008.9 |
| 20260903110005 | 56 | 146 | 4.0 | 8.0 | 0.00 | 0.27 | 0.00 | 88 | 1008.8 |
| 20260903105505 | 56 | 155 | 5.0 | 9.0 | 0.00 | 0.27 | 0.00 | 88 | 1008.9 |
| 20260903104505 | 57 | 139 | 4.0 | 7.0 | 0.00 | 0.27 | 0.00 | 87 | 1008.8 |
| 20260903104005 | 57 | 149 | 4.0 | 9.0 | 0.00 | 0.27 | 0.00 | 87 | 1008.8 |
| 20260903103505 | 57 | 183 | 5.0 | 8.0 | 0.00 | 0.27 | 0.00 | 87 | 1008.8 |
| 20260903103004 | 57 | 176 | 3.0 | 10.0 | 0.00 | 0.27 | 0.00 | 87 | 1008.8 |
| 20260903102504 | 57 | 165 | 5.0 | 8.0 | 0.00 | 0.27 | 0.00 | 87 | 1008.9 |
| 20260903102005 | 56 | 192 | 7.0 | 13.0 | 0.00 | 0.27 | 0.00 | 87 | 1008.9 |
| 20260903101505 | 56 | 180 | 8.0 | 13.0 | 0.00 | 0.27 | 0.00 | 88 | 1008.9 |
| 20260903101005 | 56 | 160 | 3.0 | 7.0 | 0.00 | 0.27 | 0.00 | 88 | 1008.9 |
| 20260903100504 | 56 | 199 | 4.0 | 8.0 | 0.00 | 0.27 | 0.00 | 88 | 1008.9 |
| 20260903100004 | 56 | 163 | 3.0 | 9.0 | 0.00 | 0.27 | 0.00 | 88 | 1008.8 |
| 20260903095505 | 56 | 170 | 5.0 | 10.0 | 0.00 | 0.27 | 0.00 | 88 | 1008.8 |
| 20260903094505 | 56 | 165 | 6.0 | 10.0 | 0.00 | 0.27 | 0.00 | 88 | 1008.8 |
| 20260903094005 | 56 | 151 | 6.0 | 9.0 | 0.00 | 0.27 | 0.00 | 88 | 1008.8 |
| 20260903093504 | 57 | 185 | 6.0 | 9.0 | 0.00 | 0.27 | 0.00 | 88 | 1008.8 |
| 20260903093005 | 57 | 150 | 6.0 | 12.0 | 0.00 | 0.27 | 0.00 | 88 | 1008.8 |
| 20260903092505 | 57 | 168 | 5.0 | 10.0 | 0.00 | 0.27 | 0.00 | 88 | 1008.9 |
| 20260903092004 | 57 | 156 | 3.0 | 7.0 | 0.00 | 0.27 | 0.00 | 88 | 1009.0 |
| 20260903091005 | 57 | 167 | 3.0 | 8.0 | 0.00 | 0.27 | 0.00 | 88 | 1008.9 |
| 20260903090504 | 57 | 162 | 5.0 | 9.0 | 0.00 | 0.27 | 0.00 | 88 | 1009.0 |
| 20260903085504 | 57 | 156 | 6.0 | 10.0 | 0.00 | 0.27 | 0.00 | 88 | 1009.0 |
| 20260903085005 | 57 | 175 | 6.0 | 9.0 | 0.00 | 0.27 | 0.00 | 88 | 1009.1 |
| 20260903084505 | 57 | 170 | 5.0 | 12.0 | 0.00 | 0.27 | 0.00 | 88 | 1009.1 |
| 20260903084005 | 57 | 161 | 7.0 | 14.0 | 0.00 | 0.27 | 0.00 | 88 | 1009.1 |
| 20260903083505 | 57 | 184 | 5.0 | 12.0 | 0.00 | 0.27 | 0.00 | 88 | 1009.0 |
| 20260903082505 | 57 | 167 | 3.0 | 10.0 | 0.00 | 0.27 | 0.00 | 88 | 1009.1 |
| 20260903082004 | 57 | 184 | 3.0 | 12.0 | 0.00 | 0.27 | 0.00 | 88 | 1009.1 |
| 20260903081005 | 57 | 159 | 6.0 | 10.0 | 0.00 | 0.27 | 0.00 | 88 | 1009.1 |
| 20260903080504 | 57 | 177 | 6.0 | 10.0 | 0.00 | 0.27 | 0.00 | 88 | 1009.2 |
| 20260903075504 | 57 | 178 | 4.0 | 9.0 | 0.00 | 0.27 | 0.00 | 88 | 1009.2 |
| 20260903075005 | 57 | 177 | 3.0 | 10.0 | 0.00 | 0.27 | 0.00 | 88 | 1009.3 |
| 20260903074504 | 57 | 193 | 3.0 | 7.0 | 0.00 | 0.27 | 0.00 | 88 | 1009.3 |
| 20260903074004 | 57 | 165 | 5.0 | 9.0 | 0.00 | 0.27 | 0.00 | 88 | 1009.3 |
| 20260903073505 | 57 | 177 | 6.0 | 10.0 | 0.00 | 0.27 | 0.00 | 88 | 1009.3 |
| 20260903072005 | 57 | 173 | 6.0 | 10.0 | 0.00 | 0.27 | 0.00 | 88 | 1009.3 |
| 20260903071504 | 57 | 176 | 7.0 | 12.0 | 0.00 | 0.27 | 0.00 | 88 | 1009.2 |
| 20260903071005 | 57 | 168 | 3.0 | 8.0 | 0.00 | 0.27 | 0.00 | 88 | 1009.1 |
| 20260903070505 | 57 | 178 | 3.0 | 7.0 | 0.00 | 0.27 | 0.00 | 88 | 1009.1 |
| 20260903070005 | 57 | 164 | 2.0 | 5.0 | 0.00 | 0.27 | 0.00 | 88 | 1009.1 |
| 20260903065504 | 57 | 167 | 3.0 | 7.0 | 0.00 | 0.27 | 0.27 | 88 | 1009.2 |
| 20260903065005 | 57 | 191 | 3.0 | 8.0 | 0.00 | 0.27 | 0.27 | 88 | 1009.1 |
| 20260903064505 | 57 | 162 | 2.0 | 7.0 | 0.00 | 0.27 | 0.27 | 87 | 1009.0 |
| 20260903064004 | 57 | 201 | 2.0 | 7.0 | 0.00 | 0.27 | 0.27 | 87 | 1009.1 |
| 20260903062505 | 57 | 195 | 3.0 | 6.0 | 0.00 | 0.27 | 0.27 | 87 | 1009.1 |
| 20260903062005 | 57 | 177 | 4.0 | 6.0 | 0.00 | 0.27 | 0.27 | 87 | 1009.0 |
| 20260903061505 | 57 | 164 | 3.0 | 6.0 | 0.00 | 0.27 | 0.27 | 87 | 1009.0 |
| 20260903061004 | 57 | 183 | 3.0 | 5.0 | 0.00 | 0.27 | 0.27 | 87 | 1009.1 |
| 20260903060505 | 57 | 195 | 2.0 | 9.0 | 0.00 | 0.27 | 0.27 | 86 | 1009.2 |
| 20260903060004 | 57 | 200 | 3.0 | 7.0 | 0.00 | 0.27 | 0.27 | 86 | 1009.2 |
| 20260903055505 | 57 | 175 | 2.0 | 6.0 | 0.00 | 0.27 | 0.27 | 86 | 1009.3 |
| 20260903055005 | 57 | 198 | 3.0 | 8.0 | 0.00 | 0.27 | 0.27 | 86 | 1009.3 |
| 20260903054505 | 57 | 198 | 6.0 | 8.0 | 0.00 | 0.27 | 0.27 | 86 | 1009.3 |
| 20260903054005 | 57 | 189 | 3.0 | 7.0 | 0.00 | 0.27 | 0.27 | 86 | 1009.3 |
| 20260903053504 | 57 | 173 | 3.0 | 10.0 | 0.00 | 0.27 | 0.27 | 86 | 1009.2 |
| 20260903051005 | 57 | 184 | 3.0 | 6.0 | 0.00 | 0.27 | 0.27 | 85 | 1009.2 |
| 20260903050505 | 57 | 189 | 3.0 | 6.0 | 0.00 | 0.27 | 0.27 | 85 | 1009.1 |
| 20260903050005 | 56 | 202 | 2.0 | 9.0 | 0.00 | 0.27 | 0.27 | 85 | 1009.0 |
| 20260903045505 | 56 | 187 | 4.0 | 7.0 | 0.00 | 0.27 | 0.27 | 86 | 1009.0 |
| 20260903045004 | 56 | 183 | 2.0 | 5.0 | 0.00 | 0.27 | 0.27 | 85 | 1009.0 |
| 20260903044505 | 56 | 203 | 5.0 | 7.0 | 0.00 | 0.27 | 0.27 | 86 | 1008.8 |
| 20260903044004 | 56 | 179 | 5.0 | 7.0 | 0.00 | 0.27 | 0.27 | 86 | 1008.8 |
| 20260903043505 | 56 | 194 | 3.0 | 6.0 | 0.00 | 0.27 | 0.27 | 86 | 1008.7 |
| 20260903043005 | 56 | 203 | 3.0 | 5.0 | 0.00 | 0.27 | 0.27 | 86 | 1008.6 |
| 20260903042504 | 56 | 202 | 3.0 | 5.0 | 0.00 | 0.27 | 0.27 | 86 | 1008.5 |
| 20260903042005 | 56 | 193 | 2.0 | 6.0 | 0.00 | 0.27 | 0.27 | 86 | 1008.6 |
| 20260903041505 | 56 | 203 | 3.0 | 6.0 | 0.00 | 0.27 | 0.27 | 85 | 1008.5 |
| 20260903041005 | 56 | 197 | 2.0 | 3.0 | 0.00 | 0.27 | 0.27 | 85 | 1008.6 |
| 20260903040504 | 56 | 203 | 2.0 | 5.0 | 0.00 | 0.27 | 0.27 | 84 | 1008.5 |
| 20260903040004 | 56 | 225 | 3.0 | 3.0 | 0.00 | 0.27 | 0.27 | 84 | 1008.5 |
| 20260903035505 | 56 | 215 | 2.0 | 5.0 | 0.00 | 0.27 | 0.27 | 84 | 1008.3 |
| 20260903035005 | 56 | 204 | 3.0 | 6.0 | 0.00 | 0.27 | 0.27 | 85 | 1008.3 |
| 20260903034505 | 56 | 209 | 2.0 | 6.0 | 0.00 | 0.27 | 0.27 | 85 | 1008.3 |
| 20260903033505 | 57 | 191 | 2.0 | 5.0 | 0.00 | 0.27 | 0.27 | 85 | 1008.0 |
| 20260903032005 | 57 | 194 | 2.0 | 3.0 | 0.00 | 0.27 | 0.27 | 84 | 1007.9 |
| 20260903031504 | 58 | 218 | 3.0 | 3.0 | 0.00 | 0.27 | 0.27 | 84 | 1008.0 |
| 20260903031004 | 58 | 215 | 2.0 | 5.0 | 0.00 | 0.27 | 0.27 | 83 | 1007.9 |
| 20260903030504 | 58 | 214 | 2.0 | 3.0 | 0.00 | 0.27 | 0.27 | 83 | 1007.8 |
| 20260903030005 | 59 | 213 | 2.0 | 3.0 | 0.00 | 0.27 | 0.27 | 82 | 1007.8 |
| 20260903025005 | 60 | 243 | 1.0 | 3.0 | 0.00 | 0.27 | 0.27 | 80 | 1007.6 |
| 20260903024504 | 60 | 212 | 3.0 | 6.0 | 0.00 | 0.27 | 0.27 | 80 | 1007.6 |
| 20260903024005 | 60 | 210 | 2.0 | 3.0 | 0.00 | 0.27 | 0.27 | 80 | 1007.6 |
| 20260903023504 | 61 | 218 | 2.0 | 3.0 | 0.00 | 0.27 | 0.27 | 80 | 1007.6 |
| 20260903023005 | 61 | 206 | 2.0 | 3.0 | 0.00 | 0.27 | 0.27 | 79 | 1007.5 |
| 20260903022505 | 62 | 225 | 2.0 | 3.0 | 0.00 | 0.27 | 0.27 | 78 | 1007.5 |
| 20260903022004 | 63 | 170 | 2.0 | 3.0 | 0.00 | 0.27 | 0.27 | 78 | 1007.4 |
| 20260903021505 | 64 | 196 | 1.0 | 3.0 | 0.00 | 0.27 | 0.27 | 76 | 1007.4 |
| 20260903021004 | 64 | 201 | 2.0 | 3.0 | 0.01 | 0.27 | 0.27 | 74 | 1007.4 |
| 20260903020504 | 65 | 206 | 3.0 | 3.0 | 0.01 | 0.27 | 0.27 | 72 | 1007.3 |
| 20260903020004 | 65 | 235 | 2.0 | 5.0 | 0.01 | 0.27 | 0.27 | 72 | 1007.2 |
| 20260903015504 | 65 | 221 | 2.0 | 2.0 | 0.01 | 0.27 | 0.27 | 70 | 1007.3 |
| 20260903015004 | 65 | 272 | 1.0 | 3.0 | 0.01 | 0.27 | 0.27 | 73 | 1007.2 |
| 20260903014505 | 66 | 254 | 3.0 | 6.0 | 0.01 | 0.27 | 0.27 | 70 | 1007.3 |
| 20260903013505 | 65 | 234 | 0.0 | 2.0 | 0.01 | 0.27 | 0.27 | 71 | 1007.2 |
| 20260903013005 | 65 | 234 | 0.0 | 2.0 | 0.01 | 0.27 | 0.27 | 73 | 1007.1 |
| 20260903012505 | 64 | 211 | 0.0 | 2.0 | 0.01 | 0.27 | 0.27 | 76 | 1007.1 |
| 20260903012005 | 64 | 205 | 1.0 | 2.0 | 0.01 | 0.27 | 0.27 | 73 | 1007.0 |
| 20260903011005 | 65 | 235 | 1.0 | 2.0 | 0.00 | 0.26 | 0.26 | 73 | 1006.9 |
| 20260903010504 | 65 | 206 | 1.0 | 5.0 | 0.00 | 0.26 | 0.26 | 69 | 1006.9 |
| 20260903010005 | 66 | 200 | 3.0 | 6.0 | 0.00 | 0.26 | 0.26 | 68 | 1006.9 |
| 20260903005505 | 66 | 221 | 3.0 | 6.0 | 0.00 | 0.26 | 0.26 | 70 | 1006.8 |
| 20260903005005 | 67 | 258 | 4.0 | 8.0 | 0.00 | 0.26 | 0.26 | 67 | 1006.8 |
| 20260903004504 | 66 | 214 | 2.0 | 7.0 | 0.00 | 0.26 | 0.26 | 67 | 1006.7 |
| 20260903004004 | 66 | 198 | 5.0 | 9.0 | 0.00 | 0.26 | 0.26 | 69 | 1006.6 |
| 20260903003505 | 66 | 175 | 5.0 | 7.0 | 0.00 | 0.26 | 0.26 | 73 | 1006.7 |
| 20260903003004 | 65 | 193 | 5.0 | 7.0 | 0.00 | 0.26 | 0.26 | 72 | 1006.8 |
| 20260903002504 | 66 | 182 | 4.0 | 7.0 | 0.00 | 0.26 | 0.26 | 71 | 1006.7 |
| 20260903002004 | 66 | 176 | 2.0 | 8.0 | 0.00 | 0.26 | 0.26 | 68 | 1006.7 |
| 20260903001505 | 67 | 204 | 6.0 | 10.0 | 0.00 | 0.26 | 0.26 | 72 | 1006.6 |
| 20260903000505 | 66 | 204 | 4.0 | 7.0 | 0.00 | 0.26 | 0.26 | 73 | 1006.7 |
| 20260902235505 | 66 | 258 | 4.0 | 9.0 | 0.00 | 0.26 | 0.26 | 71 | 1006.6 |
| 20260902235005 | 65 | 226 | 3.0 | 6.0 | 0.00 | 0.26 | 0.26 | 71 | 1006.6 |
| 20260902234504 | 66 | 148 | 3.0 | 6.0 | 0.00 | 0.26 | 0.26 | 73 | 1006.5 |
| 20260902234005 | 66 | 199 | 4.0 | 7.0 | 0.00 | 0.26 | 0.26 | 71 | 1006.5 |
| 20260902233504 | 66 | 201 | 5.0 | 8.0 | 0.00 | 0.26 | 0.26 | 76 | 1006.4 |
| 20260902232504 | 65 | 186 | 3.0 | 8.0 | 0.00 | 0.26 | 0.26 | 77 | 1006.5 |
| 20260902232005 | 65 | 202 | 2.0 | 3.0 | 0.00 | 0.26 | 0.26 | 78 | 1006.5 |
| 20260902231504 | 64 | 182 | 3.0 | 5.0 | 0.00 | 0.26 | 0.26 | 81 | 1006.4 |
| 20260902231005 | 64 | 175 | 3.0 | 6.0 | 0.01 | 0.26 | 0.26 | 81 | 1006.4 |
| 20260902230004 | 64 | 225 | 4.0 | 8.0 | 0.01 | 0.26 | 0.26 | 85 | 1006.4 |
| 20260902225504 | 63 | 169 | 5.0 | 9.0 | 0.01 | 0.26 | 0.26 | 87 | 1006.4 |
| 20260902224505 | 61 | 200 | 5.0 | 9.0 | 0.01 | 0.26 | 0.26 | 88 | 1006.1 |
| 20260902224004 | 61 | 196 | 4.0 | 8.0 | 0.01 | 0.26 | 0.26 | 89 | 1006.1 |
| 20260902223505 | 61 | 205 | 6.0 | 8.0 | 0.01 | 0.26 | 0.26 | 89 | 1006.0 |
| 20260902223004 | 61 | 180 | 6.0 | 13.0 | 0.02 | 0.26 | 0.26 | 89 | 1006.0 |
| 20260902222505 | 60 | 183 | 5.0 | 10.0 | 0.02 | 0.26 | 0.26 | 90 | 1006.0 |
| 20260902222004 | 60 | 192 | 6.0 | 12.0 | 0.02 | 0.26 | 0.26 | 89 | 1006.0 |
| 20260902221506 | 60 | 190 | 8.0 | 14.0 | 0.02 | 0.26 | 0.26 | 89 | 1005.9 |
| 20260902220505 | 60 | 176 | 10.0 | 15.0 | 0.01 | 0.25 | 0.25 | 90 | 1005.7 |
| 20260902215504 | 60 | 176 | 8.0 | 16.0 | 0.02 | 0.25 | 0.25 | 90 | 1005.6 |
| 20260902215005 | 60 | 146 | 9.0 | 16.0 | 0.02 | 0.25 | 0.25 | 90 | 1005.5 |
| 20260902214504 | 59 | 178 | 7.0 | 13.0 | 0.02 | 0.25 | 0.25 | 90 | 1005.6 |
| 20260902214005 | 59 | 154 | 6.0 | 13.0 | 0.02 | 0.25 | 0.25 | 90 | 1005.6 |
| 20260902213504 | 59 | 175 | 6.0 | 14.0 | 0.02 | 0.25 | 0.25 | 90 | 1005.6 |
| 20260902213004 | 59 | 174 | 7.0 | 17.0 | 0.02 | 0.24 | 0.24 | 90 | 1005.6 |
| 20260902212505 | 59 | 184 | 7.0 | 13.0 | 0.02 | 0.24 | 0.24 | 90 | 1005.6 |
| 20260902212004 | 59 | 163 | 7.0 | 13.0 | 0.02 | 0.24 | 0.24 | 90 | 1005.6 |
| 20260902211504 | 59 | 151 | 7.0 | 13.0 | 0.02 | 0.24 | 0.24 | 89 | 1005.6 |
| 20260902211004 | 59 | 167 | 8.0 | 14.0 | 0.03 | 0.24 | 0.24 | 89 | 1005.5 |
| 20260902205505 | 59 | 163 | 8.0 | 14.0 | 0.03 | 0.23 | 0.23 | 89 | 1005.5 |
| 20260902205004 | 58 | 176 | 10.0 | 16.0 | 0.03 | 0.23 | 0.23 | 89 | 1005.4 |
| 20260902204504 | 59 | 165 | 10.0 | 14.0 | 0.03 | 0.23 | 0.23 | 90 | 1005.4 |
| 20260902203505 | 58 | 162 | 6.0 | 15.0 | 0.03 | 0.23 | 0.23 | 89 | 1005.4 |
| 20260902202004 | 58 | 179 | 5.0 | 13.0 | 0.03 | 0.22 | 0.22 | 89 | 1005.4 |
| 20260902201005 | 58 | 180 | 6.0 | 15.0 | 0.02 | 0.21 | 0.21 | 89 | 1005.4 |
| 20260902200505 | 58 | 158 | 8.0 | 16.0 | 0.02 | 0.21 | 0.21 | 88 | 1005.4 |
| 20260902200004 | 58 | 159 | 10.0 | 15.0 | 0.03 | 0.21 | 0.21 | 88 | 1005.3 |
| 20260902195504 | 58 | 161 | 7.0 | 13.0 | 0.04 | 0.20 | 0.20 | 88 | 1005.4 |
| 20260902195004 | 59 | 191 | 7.0 | 16.0 | 0.06 | 0.20 | 0.20 | 88 | 1005.4 |
| 20260902194504 | 59 | 185 | 6.0 | 17.0 | 0.06 | 0.20 | 0.20 | 88 | 1005.3 |
| 20260902193504 | 58 | 125 | 6.0 | 10.0 | 0.07 | 0.20 | 0.20 | 89 | 1005.3 |
| 20260902192505 | 58 | 177 | 9.0 | 12.0 | 0.08 | 0.20 | 0.20 | 89 | 1005.5 |
| 20260902192004 | 58 | 184 | 9.0 | 14.0 | 0.07 | 0.19 | 0.19 | 89 | 1005.6 |
| 20260902191505 | 58 | 176 | 4.0 | 13.0 | 0.07 | 0.19 | 0.19 | 89 | 1005.7 |
| 20260902191004 | 58 | 163 | 4.0 | 12.0 | 0.07 | 0.19 | 0.19 | 89 | 1005.7 |
| 20260902190504 | 58 | 133 | 4.0 | 9.0 | 0.07 | 0.19 | 0.19 | 88 | 1005.8 |
| 20260902190004 | 59 | 169 | 7.0 | 10.0 | 0.07 | 0.18 | 0.18 | 88 | 1006.0 |
| 20260902185505 | 59 | 172 | 6.0 | 12.0 | 0.05 | 0.16 | 0.16 | 88 | 1006.1 |
| 20260902185004 | 59 | 172 | 5.0 | 10.0 | 0.04 | 0.14 | 0.14 | 88 | 1006.0 |
| 20260902184504 | 59 | 191 | 6.0 | 10.0 | 0.04 | 0.14 | 0.14 | 88 | 1006.0 |
| 20260902184005 | 59 | 182 | 6.0 | 10.0 | 0.03 | 0.13 | 0.13 | 88 | 1005.9 |
| 20260902183504 | 59 | 151 | 6.0 | 10.0 | 0.04 | 0.13 | 0.13 | 88 | 1006.0 |
| 20260902183005 | 59 | 171 | 6.0 | 9.0 | 0.03 | 0.12 | 0.12 | 88 | 1006.0 |
| 20260902182504 | 59 | 185 | 3.0 | 7.0 | 0.03 | 0.12 | 0.12 | 88 | 1006.0 |
| 20260902182004 | 59 | 150 | 5.0 | 10.0 | 0.04 | 0.12 | 0.12 | 88 | 1006.1 |
| 20260902181505 | 58 | 181 | 5.0 | 10.0 | 0.05 | 0.12 | 0.12 | 88 | 1006.1 |
| 20260902181004 | 58 | 166 | 6.0 | 10.0 | 0.05 | 0.12 | 0.12 | 88 | 1006.2 |
| 20260902180505 | 59 | 155 | 5.0 | 12.0 | 0.07 | 0.12 | 0.12 | 88 | 1006.2 |
| 20260902175504 | 59 | 179 | 6.0 | 12.0 | 0.07 | 0.11 | 0.11 | 88 | 1006.4 |
| 20260902175005 | 59 | 149 | 7.0 | 13.0 | 0.07 | 0.10 | 0.10 | 88 | 1006.4 |
| 20260902174505 | 59 | 134 | 4.0 | 12.0 | 0.08 | 0.10 | 0.10 | 88 | 1006.4 |
| 20260902174004 | 59 | 176 | 5.0 | 9.0 | 0.09 | 0.10 | 0.10 | 88 | 1006.4 |
| 20260902173505 | 59 | 162 | 6.0 | 12.0 | 0.08 | 0.09 | 0.09 | 88 | 1006.5 |
| 20260902173004 | 59 | 158 | 5.0 | 7.0 | 0.09 | 0.09 | 0.09 | 88 | 1006.4 |
| 20260902172504 | 59 | 150 | 3.0 | 10.0 | 0.09 | 0.09 | 0.09 | 88 | 1006.4 |
| 20260902171505 | 59 | 181 | 3.0 | 9.0 | 0.07 | 0.07 | 0.07 | 87 | 1006.4 |
| 20260902170504 | 59 | 182 | 3.0 | 5.0 | 0.05 | 0.05 | 0.05 | 87 | 1006.5 |
| 20260902170005 | 59 | 183 | 2.0 | 5.0 | 0.04 | 0.04 | 0.04 | 86 | 1006.4 |
| 20260902165504 | 60 | 165 | 2.0 | 3.0 | 0.04 | 0.04 | 0.04 | 86 | 1006.5 |
| 20260902164505 | 60 | 155 | 2.0 | 5.0 | 0.02 | 0.02 | 0.02 | 86 | 1006.4 |
| 20260902164004 | 60 | 163 | 2.0 | 3.0 | 0.01 | 0.01 | 0.01 | 85 | 1006.5 |
| 20260902163504 | 60 | 158 | 2.0 | 5.0 | 0.01 | 0.01 | 0.01 | 85 | 1006.5 |
| 20260902163004 | 60 | 171 | 1.0 | 3.0 | 0.00 | 0.00 | 0.00 | 85 | 1006.4 |
| 20260902162504 | 60 | 174 | 2.0 | 5.0 | 0.00 | 0.00 | 0.00 | 85 | 1006.5 |
| 20260902162004 | 60 | 170 | 2.0 | 3.0 | 0.00 | 0.00 | 0.00 | 84 | 1006.4 |
| 20260902161504 | 60 | 202 | 1.0 | 2.0 | 0.00 | 0.00 | 0.00 | 84 | 1006.4 |
| 20260902161004 | 60 | 184 | 2.0 | 3.0 | 0.00 | 0.00 | 0.00 | 83 | 1006.4 |
| 20260902160504 | 60 | 173 | 2.0 | 3.0 | 0.00 | 0.00 | 0.00 | 82 | 1006.4 |
| 20260902160006 | 60 | 171 | 2.0 | 5.0 | 0.00 | 0.00 | 0.00 | 82 | 1006.4 |
| 20260902155504 | 60 | 215 | 2.0 | 3.0 | 0.00 | 0.00 | 0.00 | 82 | 1006.4 |
| 20260902155004 | 60 | 181 | 2.0 | 5.0 | 0.00 | 0.00 | 0.00 | 83 | 1006.4 |
| 20260902154504 | 60 | 159 | 1.0 | 5.0 | 0.00 | 0.00 | 0.00 | 82 | 1006.5 |